Tracking 19832 objects as of 25-Aug-2019
HD Live streaming from Space Station
objects crossing your sky now

OPS 1427 (OV3-4)

Track OPS 1427 (OV3-4) now!
10-day predictions
OPS 1427 (OV3-4) is classified as:


NORAD ID: 2201
Int'l Code: 1966-052A
Perigee: 650.5 km
Apogee: 4,692.9 km
Inclination: 40.9 °
Period: 142.6 minutes
Semi major axis: 9042 km
RCS: 0.817 m2 (medium)
Launch date: June 10, 1966
Source: United States (US)
Launch site: WALLOPS ISLAND (WLPIS)
aabbcc
Your satellite tracking list
Your tracking list is empty




NASA's NSSDC Master Catalog

Two Line Element Set (TLE):
1  2201U 66052A   19237.15018342 -.00000073  00000-0 -35262-4 0  9994
2  2201  40.8666 286.7189 2235204 113.1234 271.9696 10.09614321960418
Source of the keplerian elements: AFSPC